| time (UTC) | temp F | wind direction | speed MPH | gust MPH | rain 1hr in | rain 24hr in | rain mn in | humidity % | barometer mb |
| 20260506221018 | 51 | 315 | 4.0 | 9.0 | 0.00 | 0.17 | 0.00 | 89 | 1009.1 |
| 20260506220017 | 51 | 293 | 4.0 | 9.0 | 0.00 | 0.18 | 0.18 | 89 | 1008.9 |
| 20260506215016 | 51 | 293 | 4.0 | 10.0 | 0.00 | 0.20 | 0.18 | 88 | 1008.8 |
| 20260506214016 | 51 | 293 | 4.0 | 8.0 | 0.00 | 0.21 | 0.18 | 88 | 1008.8 |
| 20260506213016 | 51 | 293 | 5.0 | 10.0 | 0.00 | 0.22 | 0.18 | 88 | 1008.6 |
| 20260506212016 | 51 | 315 | 4.0 | 8.0 | 0.00 | 0.24 | 0.18 | 89 | 1008.6 |
| 20260506211036 | 51 | 293 | 6.0 | 10.0 | 0.00 | 0.25 | 0.18 | 89 | 1008.6 |
| 20260506210016 | 51 | 293 | 5.0 | 8.0 | 0.00 | 0.28 | 0.18 | 89 | 1008.6 |
| 20260506205016 | 51 | 270 | 4.0 | 7.0 | 0.00 | 0.30 | 0.18 | 89 | 1008.7 |
| 20260506204016 | 51 | 293 | 3.0 | 7.0 | 0.00 | 0.33 | 0.18 | 89 | 1008.7 |
| 20260506203136 | 51 | 293 | 2.0 | 4.0 | 0.00 | 0.36 | 0.18 | 89 | 1008.5 |
| 20260506202016 | 51 | 315 | 2.0 | 5.0 | 0.00 | 0.40 | 0.18 | 89 | 1008.6 |
| 20260506201036 | 51 | 293 | 4.0 | 8.0 | 0.00 | 0.44 | 0.18 | 89 | 1008.3 |
| 20260506200016 | 51 | 293 | 6.0 | 10.0 | 0.00 | 0.46 | 0.18 | 89 | 1008.2 |
| 20260506195036 | 52 | 293 | 5.0 | 10.0 | 0.00 | 0.47 | 0.18 | 89 | 1008.3 |
| 20260506194016 | 52 | 293 | 7.0 | 13.0 | 0.00 | 0.50 | 0.18 | 89 | 1008.1 |
| 20260506193016 | 52 | 293 | 7.0 | 13.0 | 0.00 | 0.54 | 0.18 | 89 | 1008.0 |
| 20260506192016 | 52 | 293 | 6.0 | 11.0 | 0.00 | 0.60 | 0.18 | 89 | 1007.9 |
| 20260506191016 | 52 | 293 | 8.0 | 14.0 | 0.00 | 0.72 | 0.18 | 89 | 1007.7 |
| 20260506190036 | 52 | 293 | 8.0 | 15.0 | 0.00 | 0.80 | 0.18 | 88 | 1007.5 |
| 20260506185016 | 53 | 293 | 6.0 | 10.0 | 0.00 | 0.88 | 0.18 | 88 | 1007.2 |
| 20260506184016 | 53 | 293 | 7.0 | 12.0 | 0.00 | 0.94 | 0.18 | 88 | 1007.2 |
| 20260506183036 | 53 | 293 | 7.0 | 10.0 | 0.00 | 0.98 | 0.18 | 87 | 1007.0 |
| 20260506182036 | 54 | 293 | 7.0 | 13.0 | 0.00 | 1.02 | 0.18 | 88 | 1006.9 |
| 20260506181016 | 54 | 293 | 6.0 | 12.0 | 0.00 | 1.04 | 0.18 | 88 | 1007.0 |
| 20260506180016 | 54 | 293 | 7.0 | 12.0 | 0.00 | 1.04 | 0.18 | 87 | 1006.8 |
| 20260506175017 | 55 | 293 | 7.0 | 11.0 | 0.00 | 1.04 | 0.18 | 86 | 1006.8 |
| 20260506174016 | 55 | 293 | 6.0 | 11.0 | 0.00 | 1.04 | 0.18 | 86 | 1006.7 |
| 20260506173016 | 55 | 293 | 7.0 | 14.0 | 0.00 | 1.04 | 0.18 | 85 | 1006.4 |
| 20260506172016 | 56 | 293 | 8.0 | 13.0 | 0.00 | 1.04 | 0.18 | 85 | 1006.1 |
| 20260506171036 | 56 | 293 | 8.0 | 12.0 | 0.00 | 1.04 | 0.18 | 84 | 1006.0 |
| 20260506170016 | 56 | 315 | 8.0 | 14.0 | 0.00 | 1.04 | 0.18 | 83 | 1006.1 |
| 20260506165016 | 58 | 293 | 8.0 | 15.0 | 0.00 | 1.04 | 0.18 | 82 | 1006.0 |
| 20260506164016 | 58 | 315 | 10.0 | 17.0 | 0.00 | 1.04 | 0.18 | 81 | 1006.0 |
| 20260506163015 | 60 | 293 | 10.0 | 19.0 | 0.00 | 1.04 | 0.18 | 79 | 1005.8 |
| 20260506162016 | 61 | 293 | 10.0 | 18.0 | 0.00 | 1.04 | 0.18 | 78 | 1005.7 |
| 20260506161015 | 62 | 293 | 9.0 | 15.0 | 0.00 | 1.04 | 0.18 | 76 | 1005.6 |
| 20260506160015 | 64 | 293 | 9.0 | 16.0 | 0.00 | 1.04 | 0.18 | 73 | 1005.6 |
| 20260506155035 | 65 | 270 | 4.0 | 10.0 | 0.00 | 1.04 | 0.18 | 68 | 1005.5 |
| 20260506154015 | 65 | 270 | 5.0 | 9.0 | 0.00 | 1.04 | 0.18 | 67 | 1005.4 |
| 20260506153015 | 66 | 270 | 3.0 | 6.0 | 0.00 | 1.04 | 0.18 | 65 | 1005.5 |
| 20260506152015 | 66 | 225 | 3.0 | 6.0 | 0.00 | 1.04 | 0.18 | 65 | 1005.5 |
| 20260506151016 | 67 | 203 | 4.0 | 8.0 | 0.00 | 1.04 | 0.18 | 63 | 1005.5 |
| 20260506150017 | 67 | 203 | 4.0 | 9.0 | 0.00 | 1.04 | 0.18 | 63 | 1005.5 |
| 20260506145057 | 67 | 203 | 5.0 | 9.0 | 0.00 | 1.04 | 0.18 | 63 | 1005.6 |
| 20260506144017 | 66 | 180 | 5.0 | 9.0 | 0.00 | 1.04 | 0.18 | 64 | 1005.5 |
| 20260506143037 | 66 | 203 | 4.0 | 6.0 | 0.00 | 1.04 | 0.18 | 64 | 1005.6 |
| 20260506142015 | 66 | 225 | 3.0 | 8.0 | 0.00 | 1.04 | 0.18 | 65 | 1005.6 |
| 20260506141015 | 66 | 248 | 4.0 | 8.0 | 0.00 | 1.04 | 0.18 | 65 | 1005.6 |
| 20260506140017 | 66 | 225 | 5.0 | 10.0 | 0.00 | 1.04 | 0.18 | 65 | 1005.7 |
| 20260506135017 | 66 | 270 | 4.0 | 7.0 | 0.00 | 1.04 | 0.18 | 64 | 1005.6 |
| 20260506134017 | 67 | 248 | 6.0 | 10.0 | 0.00 | 1.04 | 0.18 | 63 | 1005.7 |
| 20260506133017 | 67 | 270 | 4.0 | 11.0 | 0.00 | 1.04 | 0.18 | 67 | 1005.7 |
| 20260506132018 | 65 | 248 | 4.0 | 8.0 | 0.00 | 1.04 | 0.18 | 69 | 1005.7 |
| 20260506131017 | 65 | 203 | 4.0 | 9.0 | 0.00 | 1.04 | 0.18 | 67 | 1005.6 |
| 20260506130018 | 65 | 248 | 4.0 | 8.0 | 0.00 | 1.04 | 0.18 | 68 | 1005.6 |
| 20260506125018 | 65 | 270 | 5.0 | 9.0 | 0.00 | 1.04 | 0.18 | 67 | 1005.6 |
| 20260506124017 | 65 | 225 | 3.0 | 6.0 | 0.00 | 1.04 | 0.18 | 69 | 1005.7 |
| 20260506123017 | 66 | 225 | 4.0 | 9.0 | 0.00 | 1.04 | 0.18 | 67 | 1005.7 |
| 20260506122017 | 66 | 248 | 5.0 | 8.0 | 0.00 | 1.04 | 0.18 | 71 | 1005.7 |
| 20260506121017 | 66 | 248 | 2.0 | 6.0 | 0.00 | 1.04 | 0.18 | 70 | 1005.6 |
| 20260506120017 | 65 | 203 | 5.0 | 10.0 | 0.00 | 1.04 | 0.18 | 69 | 1005.7 |
| 20260506115017 | 63 | 270 | 2.0 | 6.0 | 0.00 | 1.04 | 0.18 | 76 | 1005.7 |
| 20260506114017 | 63 | 270 | 4.0 | 8.0 | 0.00 | 1.04 | 0.18 | 75 | 1005.7 |
| 20260506113037 | 63 | 225 | 4.0 | 8.0 | 0.00 | 1.04 | 0.18 | 74 | 1005.7 |
| 20260506112037 | 63 | 203 | 5.0 | 11.0 | 0.00 | 1.04 | 0.18 | 74 | 1005.7 |
| 20260506111017 | 63 | 203 | 4.0 | 9.0 | 0.00 | 1.04 | 0.18 | 76 | 1005.7 |
| 20260506110017 | 62 | 225 | 3.0 | 7.0 | 0.00 | 1.04 | 0.18 | 77 | 1005.9 |
| 20260506105017 | 62 | 180 | 4.0 | 8.0 | 0.00 | 1.04 | 0.18 | 77 | 1006.0 |
| 20260506104017 | 62 | 203 | 5.0 | 12.0 | 0.00 | 1.04 | 0.18 | 75 | 1006.0 |
| 20260506103017 | 62 | 180 | 4.0 | 8.0 | 0.00 | 1.04 | 0.18 | 77 | 1006.1 |
| 20260506102017 | 61 | 180 | 3.0 | 8.0 | 0.00 | 1.04 | 0.18 | 79 | 1006.0 |
| 20260506101017 | 61 | 225 | 4.0 | 9.0 | 0.00 | 1.04 | 0.18 | 80 | 1006.0 |
| 20260506100017 | 60 | 203 | 1.0 | 4.0 | 0.00 | 1.04 | 0.18 | 81 | 1006.0 |
| 20260506095017 | 59 | 248 | 2.0 | 5.0 | 0.00 | 1.04 | 0.18 | 82 | 1006.0 |
| 20260506094017 | 59 | 203 | 3.0 | 7.0 | 0.00 | 1.04 | 0.18 | 82 | 1005.8 |
| 20260506093017 | 59 | 180 | 5.0 | 11.0 | 0.00 | 1.04 | 0.18 | 83 | 1005.9 |
| 20260506092017 | 59 | 180 | 3.0 | 8.0 | 0.00 | 1.04 | 0.18 | 84 | 1005.9 |
| 20260506091016 | 59 | 203 | 3.0 | 7.0 | 0.00 | 1.04 | 0.18 | 85 | 1005.7 |
| 20260506090017 | 59 | 203 | 3.0 | 8.0 | 0.00 | 1.04 | 0.18 | 85 | 1005.7 |
| 20260506085017 | 58 | 248 | 3.0 | 7.0 | 0.00 | 1.04 | 0.18 | 86 | 1005.7 |
| 20260506084017 | 58 | 248 | 4.0 | 8.0 | 0.00 | 1.04 | 0.18 | 87 | 1005.5 |
| 20260506083017 | 58 | 225 | 4.0 | 9.0 | 0.00 | 1.04 | 0.18 | 87 | 1005.5 |
| 20260506082016 | 58 | 180 | 4.0 | 10.0 | 0.00 | 1.04 | 0.18 | 87 | 1005.5 |
| 20260506081017 | 58 | 203 | 5.0 | 11.0 | 0.00 | 1.04 | 0.18 | 87 | 1005.4 |
| 20260506073017 | 58 | 203 | 4.0 | 9.0 | 0.00 | 1.04 | 0.18 | 90 | 1005.2 |
| 20260506072017 | 58 | 180 | 4.0 | 9.0 | 0.00 | 1.04 | 0.18 | 89 | 1005.2 |
| 20260506071016 | 57 | 225 | 4.0 | 9.0 | 0.00 | 1.04 | 0.18 | 92 | 1005.2 |
| 20260506062016 | 56 | 203 | 4.0 | 8.0 | 0.00 | 1.04 | 0.18 | 94 | 1005.2 |
| 20260506061016 | 56 | 180 | 4.0 | 8.0 | 0.00 | 1.04 | 0.18 | 96 | 1005.2 |
| 20260506051016 | 54 | 180 | 3.0 | 7.0 | 0.02 | 1.04 | 0.18 | 96 | 1005.3 |
| 20260506045016 | 54 | 135 | 1.0 | 3.0 | 0.02 | 1.04 | 0.18 | 96 | 1005.1 |
| 20260506044016 | 54 | 135 | 1.0 | 2.0 | 0.05 | 1.04 | 0.18 | 96 | 1005.1 |
| 20260506043016 | 54 | 135 | 1.0 | 2.0 | 0.04 | 1.03 | 0.17 | 96 | 1005.0 |
| 20260506042016 | 54 | 0.0 | 2.0 | 0.04 | 1.02 | 0.17 | 96 | 1005.0 | |
| 20260506041036 | 54 | 0.0 | 1.0 | 0.05 | 1.02 | 0.17 | 96 | 1005.1 | |
| 20260506040016 | 54 | 0.0 | 1.0 | 0.06 | 1.02 | 0.17 | 96 | 1005.2 | |
| 20260506035016 | 54 | 0.0 | 2.0 | 0.05 | 1.02 | 0.16 | 96 | 1005.2 | |
| 20260506034016 | 54 | 135 | 1.0 | 2.0 | 0.03 | 0.99 | 0.13 | 96 | 1005.2 |
| 20260506033016 | 54 | 135 | 1.0 | 2.0 | 0.04 | 0.99 | 0.13 | 96 | 1005.3 |
| 20260506032016 | 54 | 135 | 1.0 | 2.0 | 0.04 | 0.98 | 0.13 | 96 | 1005.4 |
| 20260506031016 | 54 | 135 | 1.0 | 3.0 | 0.03 | 0.98 | 0.12 | 96 | 1005.4 |
| 20260506030036 | 54 | 135 | 1.0 | 3.0 | 0.03 | 0.97 | 0.11 | 96 | 1005.5 |
| 20260506025036 | 54 | 135 | 1.0 | 4.0 | 0.04 | 0.97 | 0.11 | 96 | 1005.7 |
| 20260506024016 | 54 | 135 | 1.0 | 2.0 | 0.03 | 0.96 | 0.10 | 96 | 1005.8 |
| 20260506023016 | 54 | 135 | 2.0 | 3.0 | 0.03 | 0.95 | 0.09 | 96 | 1005.9 |
| 20260506022016 | 54 | 0.0 | 0.0 | 0.02 | 0.94 | 0.09 | 96 | 1006.0 | |
| 20260506021016 | 54 | 135 | 1.0 | 2.0 | 0.02 | 0.94 | 0.09 | 96 | 1006.1 |
| 20260506020057 | 54 | 135 | 1.0 | 3.0 | 0.02 | 0.94 | 0.08 | 96 | 1006.2 |
| 20260506015016 | 54 | 0.0 | 0.0 | 0.01 | 0.93 | 0.07 | 96 | 1006.3 | |
| 20260506014016 | 54 | 135 | 1.0 | 2.0 | 0.01 | 0.93 | 0.07 | 96 | 1006.4 |
| 20260506013016 | 54 | 135 | 1.0 | 2.0 | 0.00 | 0.92 | 0.06 | 96 | 1006.4 |
| 20260506012015 | 54 | 135 | 1.0 | 2.0 | 0.00 | 0.92 | 0.06 | 96 | 1006.4 |
| 20260506011017 | 54 | 0.0 | 1.0 | 0.00 | 0.92 | 0.06 | 96 | 1006.4 | |
| 20260506010016 | 54 | 0.0 | 1.0 | 0.00 | 0.92 | 0.06 | 96 | 1006.6 | |
| 20260506005035 | 54 | 0.0 | 2.0 | 0.01 | 0.92 | 0.06 | 96 | 1006.6 | |
| 20260506004016 | 54 | 135 | 1.0 | 2.0 | 0.01 | 0.92 | 0.06 | 96 | 1006.7 |
| 20260506003016 | 54 | 135 | 1.0 | 2.0 | 0.01 | 0.92 | 0.06 | 96 | 1006.8 |
| 20260506002015 | 54 | 135 | 1.0 | 2.0 | 0.01 | 0.92 | 0.06 | 95 | 1006.8 |
| 20260506001015 | 54 | 135 | 1.0 | 3.0 | 0.01 | 0.92 | 0.06 | 95 | 1006.8 |
| 20260506000017 | 54 | 113 | 1.0 | 2.0 | 0.02 | 0.92 | 0.06 | 95 | 1007.0 |
| 20260505235017 | 54 | 0.0 | 1.0 | 0.01 | 0.91 | 0.06 | 95 | 1007.0 | |
| 20260505234017 | 54 | 68 | 1.0 | 2.0 | 0.02 | 0.91 | 0.06 | 95 | 1007.1 |
| 20260505233037 | 54 | 68 | 1.0 | 2.0 | 0.02 | 0.91 | 0.06 | 95 | 1007.3 |
| 20260505232015 | 54 | 0.0 | 0.0 | 0.03 | 0.91 | 0.06 | 95 | 1007.3 | |
| 20260505231017 | 54 | 0.0 | 1.0 | 0.04 | 0.91 | 0.06 | 95 | 1007.1 | |
| 20260505230017 | 54 | 68 | 1.0 | 2.0 | 0.05 | 0.91 | 0.05 | 95 | 1007.2 |
| 20260505225017 | 54 | 0.0 | 1.0 | 0.06 | 0.91 | 0.05 | 95 | 1007.3 | |
| 20260505224017 | 54 | 0.0 | 1.0 | 0.07 | 0.90 | 0.04 | 95 | 1007.4 | |
| 20260505223037 | 54 | 0.0 | 1.0 | 0.08 | 0.90 | 0.04 | 95 | 1007.4 | |
| 20260505222037 | 54 | 68 | 1.0 | 2.0 | 0.08 | 0.88 | 0.02 | 95 | 1007.5 |